SCP
0 0 0 0 0 0 0 0 0 0 0 0 0 0 0 0 0 0 0 0 0 0 0 0 0 0 0 0 0 0 0 0 0 0 0 0 0 0 0 0 0 0 0 0
0 0 0 0 0 0 0 0 0 0 0 0 0 0 0 0 0 0 0 0 0 0 0 0 0 0 0 0 0 0 0 0 0 0 0 0 0 0 0 0 0 0 0 0
0 0 0 0 0 0 0 0 0 0 0 0 0 0 0 0 0 0 0 0 0 0 0 0 0 0 0 0 0 0 0 0 0 0 0 0 0 0 0 0 0 0 0 0
0 0 0 0 0 0 0 0 0 0 0 0 0 -0 0 0 0 0 0 0 0 0 0 0 0 0 0 0 0 0 0 0 0 0 0 0 0 0 0 0 0 0 0 0
0 0 0 0 0 0 0 0 0 0 0 0 0 0 -0 0 0 0 0 0 0 0 0 0 0 0 0 0 0 0 0 0 0 0 0 0 0 0 0 0 0 0 0 0
0 0 0 0 0 0 0 0 0 0 0 0 0 0 0 0 0 0 0 0 0 0 0 0 0 0 0 0 0 0 0 0 0 0 0 0 0 0 0 0 0 0 0 0
0 0 0 0 0 0 0 0 0 0 0 0 0 0 0 0 0 0 0 0 0 0 0 0 0 0 0 0 0 0 0 0 0 0 0 0 0 0 0 0 0 0 0 0
0 0 0 0 0 0 0 0 0 0 0 0 0 0 0 0 0 0 0 0 0 0 0 0 0 0 0 0 0 0 0 0 0 0 0 0 0 0 0 0 0 0 0 0
0 0 0 0 0 0 0 0 0 0 0 0 0 0 0 0 0 -0 -0 0 0 0 0 0 0 0 0 0 0 0 0 0 0 0 0 0 0 0 0 0 0 0 0 0
0 0 0 0 0 0 0 0 0 0 0 0 0 0 0 0 -0 -0 0 0 0 0 0 0 0 0 0 0 0 0 0 0 0 0 0 0 0 0 0 0 0 0 0 0
0 0 0 0 0 0 0 0 0 0 0 0 0 -0 0 0 -0 -0 -0 0 0 0 0 0 0 0 0 0 0 0 0 0 0 0 0 0 0 0 0 0 0 0 0 0
0 0 0 0 0 0 0 0 0 0 0 0 -0 -0 0 0 -0 0 -0 0 0 0 0 0 0 0 0 0 0 0 0 0 0 0 0 0 0 0 0 0 0 -0 -0 0
0 0 -0 0 0 0 0 0 0 0 0 -0 -0 0 0 0 -0 0 0 -0 0 0 0 0 0 0 0 0 0 0 0 0 0 0 0 0 0 0 0 0 0 0 -0 -0
0 0 0 0 0 0 0 0 0 0 0 0 -0 -0 -0 -0 -0 -0 0 0 0 0 0 0 0 0 0 0 0 0 0 0 0 0 0 0 0 0 0 0 0 0 -0 -0
0 0 0 0 0 -0 -0 -0 -0 0 0 -0 0 0 -0 -0 -0 -0 0 0 0 0 0 0 0 0 0 0 0 0 0 0 0 0 0 0 0 0 0 0 0 -0 0 0
0 0 0 0 0 0 -0 0 -0 0 0 0 0 -0 -0 -0 -0 -0 -0 0 0 0 0 0 0 0 0 0 0 0 0 0 0 0 0 0 0 0 0 0 0 0 -0 -0
0 0 0 -0 -0 0 0 0 0 0 0 0 -0 0 0 -0 -0 -0 -0 0 0 0 0 0 0 0 0 0 0 0 0 0 0 0 0 0 0 0 0 0 0 0 0 0
0 0 0 -0 -0 0 0 0 0 0 0 0 0 0 0 -0 -0 -0 -0 -0 0 0 0 0 0 0 0 0 0 0 0 0 0 0 0 0 0 0 0 0 0 0 0 0
0 0 -0 -0 -0 0 0 0 0 0 0 0 0 0 0 0 0 0 -0 -0 0 0 0 0 0 0 0 0 0 -0 -0 -0 -0 0 0 0 0 0 0 -0 -0 0 0 0
0 0 0 0 0 0 0 0 0 0 0 0 0 0 0 0 -0 -0 0 0 -0 0 0 0 0 0 0 0 0 0 0 0 0 0 0 0 0 0 0 0 0 0 -0 -0
0 0 -0 0 0 0 0 0 0 0 0 0 0 0 0 0 0 0 0 -0 -0 0 0 0 0 0 0 0 0 0 0 0 0 0 0 0 0 0 0 0 0 0 0 0
0 0 0 0 0 0 0 0 0 0 0 0 0 -0 0 0 0 0 0 0 -0 0 0 0 0 0 0 0 0 0 0 0 0 0 0 0 0 0 0 -0 -0 -0 -0 -0
0 0 0 0 0 0 -0 0 0 -0 -0 -0 0 -0 -0 0 0 0 0 0 -0 0 0 0 0 0 0 0 0 0 0 0 0 0 0 0 0 0 0 0 0 0 0 0
0 0 0 0 0 -0 0 0 0 -0 -0 -0 -0 -0 -0 -0 -0 0 0 0 0 0 0 0 0 0 0 0 0 0 0 0 0 0 0 0 0 0 0 0 0 0 0 0
0 0 0 0 0 -0 0 -0 -0 -0 -0 -0 -0 -0 -0 -0 -0 -0 -0 -0 -0 0 0 0 0 0 0 0 0 0 0 0 0 0 0 0 0 0 0 0 0 0 0 0
0 0 0 0 0 0 0 0 0 -0 -0 0 0 0 0 0 -0 -0 -0 -0 -0 0 0 0 0 0 0 0 0 0 0 0 0 0 0 0 0 0 0 0 0 0 0 0
Wind_Speed_500mb
4 2 15 17 14 2 2 5 10 8 2 5 17 20 38 41 26 35 51 48 40 38 39 44 43 44 44 45 47 55 64 65 69 69 67 59 54 54 53 52 52 52 46 47
5 14 11 8 7 11 9 8 12 9 4 2 15 33 37 27 15 15 13 18 20 25 33 42 43 43 42 44 51 60 66 67 63 59 55 55 57 58 55 53 53 52 46 44
11 5 6 7 6 6 6 9 7 9 9 1 14 16 12 2 6 11 14 16 15 19 24 31 35 37 39 46 55 61 60 57 55 55 56 54 53 54 54 52 54 53 46 43
11 8 5 5 6 8 4 2 3 2 6 7 5 12 14 6 13 8 17 18 15 12 16 22 27 33 42 51 56 56 54 54 52 52 52 51 53 55 48 52 54 54 41 36
9 3 2 2 5 7 9 5 2 3 5 7 3 2 16 7 6 4 7 21 19 16 21 26 31 39 47 52 54 54 54 52 50 48 48 49 51 53 53 51 54 51 37 21
12 5 1 6 5 5 7 6 3 6 3 3 2 5 11 7 9 5 5 14 17 23 27 29 36 43 48 47 49 49 49 47 44 44 44 47 50 51 52 51 51 46 41 36
7 2 5 8 2 5 6 7 5 7 4 9 3 2 18 10 9 10 10 24 20 21 28 35 44 45 43 45 43 43 43 43 41 42 42 43 45 47 50 49 48 45 41 32
4 10 6 7 5 1 3 3 4 11 3 6 4 11 10 10 6 13 20 23 25 33 36 41 40 38 41 41 41 40 41 43 40 40 40 39 40 43 44 43 43 39 37 34
3 9 4 7 2 2 7 6 4 7 3 2 3 13 15 4 9 10 21 18 30 34 34 35 33 37 38 38 35 38 40 40 39 38 38 35 36 36 36 35 34 34 32 31
2 9 2 5 3 5 5 3 3 1 2 7 8 11 10 8 8 10 13 25 37 36 34 33 33 34 33 31 33 33 36 40 38 36 35 34 32 30 29 27 23 26 26 27
6 4 3 3 10 9 6 4 3 3 3 7 3 12 13 13 11 12 17 42 43 36 31 30 30 29 29 28 32 33 34 32 29 30 30 30 27 25 25 18 17 20 25 24
3 4 8 10 4 5 2 4 5 5 7 1 5 13 6 11 9 9 37 47 34 32 29 29 28 25 25 28 29 30 29 29 29 29 25 23 24 22 21 17 15 14 17 21
5 5 8 5 3 3 6 5 5 5 5 10 8 11 2 6 11 24 37 36 31 29 29 27 25 24 24 23 24 24 27 27 28 26 23 21 20 20 17 15 14 12 15 19
7 5 9 7 2 3 5 5 7 7 5 6 13 20 33 19 17 30 41 33 34 30 27 25 21 20 19 19 18 18 22 26 28 26 24 20 17 16 15 10 7 13 18 19
3 7 7 17 24 17 20 17 12 16 11 12 7 13 30 29 23 30 36 35 34 29 25 22 18 14 12 11 12 15 21 23 25 25 24 21 20 18 17 15 11 9 10 14
2 6 4 12 10 3 10 17 22 23 14 18 9 45 20 26 25 23 32 30 35 28 24 18 12 8 6 7 10 12 16 18 21 24 22 23 23 20 20 20 18 17 16 18
6 2 6 8 4 13 8 9 8 4 7 11 8 18 10 21 17 36 53 56 46 29 22 16 8 3 1 3 6 8 11 16 19 21 24 25 23 23 25 25 24 26 27 26
1 3 1 8 11 3 6 3 6 10 13 14 14 19 21 34 58 60 49 47 34 21 18 13 7 5 4 6 8 11 13 17 20 23 26 28 28 27 27 27 29 33 34 38
10 3 4 1 5 11 4 5 7 9 10 13 14 15 27 36 28 6 33 27 9 14 17 15 12 10 11 12 12 10 7 9 10 12 16 20 22 22 23 24 27 27 26 27
4 5 3 1 5 3 10 5 10 9 6 11 13 12 10 32 10 9 49 44 23 17 17 17 15 15 15 18 17 15 10 4 3 3 6 8 9 9 10 11 13 15 14 13
1 1 8 7 6 13 10 2 13 9 11 35 21 39 24 4 14 52 51 44 37 28 23 23 22 20 21 26 25 19 16 10 9 7 4 4 3 3 4 6 7 8 9 9
11 10 6 1 3 8 7 5 4 8 34 50 53 47 49 53 59 58 55 51 40 35 33 30 30 28 30 33 32 26 22 19 18 16 12 10 9 9 8 7 6 5 5 4
5 8 4 13 9 5 15 23 32 29 45 47 57 59 51 52 58 59 62 53 45 39 39 39 38 37 40 40 39 35 21 28 24 23 19 17 16 14 14 14 12 11 10 10
6 6 4 6 4 20 56 18 23 48 51 46 50 55 57 61 60 60 55 43 43 41 43 46 50 51 51 49 47 38 32 36 33 30 28 27 25 22 21 19 19 19 18 18
3 5 5 11 12 49 12 44 62 60 53 58 59 54 53 52 59 55 56 50 49 49 45 47 57 61 58 54 55 47 41 44 43 38 37 36 34 31 30 29 27 27 24 27
4 3 3 6 23 11 50 63 55 53 59 53 61 63 50 46 49 50 53 53 54 55 48 48 53 61 63 59 62 58 52 52 52 50 46 43 41 38 38 37 35 35 33 34
Wind_Direction_500mb
27 67 228 215 204 233 120 234 265 260 26 280 252 275 274 278 257 263 273 281 276 262 252 246 248 255 262 275 289 300 303 303 305 306 305 298 295 293 293 293 293 294 290 281
10 244 252 244 196 221 233 263 267 272 122 260 304 292 280 286 263 251 264 290 279 252 242 242 247 253 265 280 293 298 300 302 305 305 301 299 301 297 297 297 295 293 290 281
198 210 15 189 202 183 222 210 239 252 324 50 325 290 316 301 272 261 259 286 280 256 250 244 249 259 275 288 295 299 302 305 307 306 304 301 295 291 293 295 293 290 293 285
235 286 249 255 270 146 280 251 139 249 45 265 25 283 300 343 301 265 263 264 271 260 246 243 255 272 288 299 303 305 305 304 305 304 302 301 299 299 296 293 292 292 295 284
266 346 343 224 230 154 234 21 68 98 95 41 7 358 270 357 311 334 314 256 263 261 259 262 273 288 299 304 304 305 305 304 306 304 301 299 298 298 297 292 289 289 290 262
254 295 112 221 60 86 140 45 58 39 104 347 173 154 278 234 207 290 310 320 287 269 268 275 291 300 303 303 304 305 303 306 306 303 300 299 299 298 295 295 293 290 283 261
310 67 71 18 109 65 71 53 299 318 17 223 126 239 249 263 236 215 265 303 288 276 281 291 297 300 304 305 306 307 308 309 308 305 304 301 298 296 294 294 295 292 285 279
13 322 28 355 58 139 146 169 209 246 236 300 139 237 254 218 252 272 278 284 298 297 293 296 300 307 307 308 312 313 313 314 312 309 307 303 301 298 296 295 292 286 283 277
342 279 100 61 100 179 136 207 108 111 154 357 269 280 301 263 310 303 276 290 312 312 305 307 310 308 308 311 315 315 316 317 313 312 310 310 305 299 300 297 291 282 274 273
227 303 107 111 74 327 274 114 174 312 288 285 285 282 242 312 278 296 312 293 313 319 316 311 310 307 311 316 318 318 318 318 320 322 319 315 311 306 302 298 292 283 277 274
141 137 260 131 201 182 162 187 189 86 115 177 297 272 213 221 222 243 294 316 322 323 317 314 311 313 316 322 321 321 323 323 328 325 322 316 311 307 301 300 289 280 281 280
212 248 269 243 62 29 12 153 178 140 253 141 144 274 228 236 253 258 294 321 326 323 321 318 316 317 324 327 325 328 328 334 334 331 329 324 318 312 311 308 293 280 280 285
171 236 300 281 161 137 236 175 131 124 78 201 145 263 267 283 290 288 293 324 330 325 321 318 318 322 327 334 338 343 343 351 349 347 347 342 332 322 332 332 319 304 272 258
177 248 232 257 311 138 243 229 202 140 112 191 231 285 289 308 312 317 328 329 328 325 321 322 322 327 339 347 354 360 2 360 1 2 1 360 354 346 342 354 340 302 294 300
212 256 225 259 269 243 251 229 193 201 199 210 265 234 284 292 291 300 317 328 325 324 325 326 326 333 352 4 16 17 16 9 8 15 13 16 13 11 11 14 10 350 337 335
177 275 296 277 259 295 267 240 222 229 236 269 317 284 298 298 304 294 316 325 324 327 326 325 321 334 18 33 34 21 18 16 21 28 31 41 39 33 42 44 45 43 41 46
196 251 345 273 298 301 294 243 187 202 242 162 196 240 334 300 293 293 304 303 303 310 314 307 293 276 71 60 43 43 39 42 44 46 49 50 53 56 58 59 68 70 68 70
234 121 247 280 322 15 259 203 197 199 239 228 287 271 275 273 292 299 307 292 289 288 295 284 265 237 183 138 120 101 86 77 71 66 63 58 57 55 58 65 75 80 81 79
196 156 273 269 282 291 34 247 161 183 259 194 218 268 290 321 317 10 13 349 308 271 275 265 242 215 188 174 163 150 129 83 72 75 76 73 67 61 60 59 56 59 65 72
195 153 149 324 280 235 237 259 199 137 315 223 215 272 289 339 16 271 333 336 313 289 275 264 246 224 208 201 193 183 180 143 112 78 73 72 69 70 67 62 68 71 67 60
94 269 190 229 273 288 265 185 155 69 273 333 312 318 304 275 274 305 322 318 310 283 266 256 250 230 208 207 203 208 223 222 223 223 256 298 322 354 26 27 24 22 26 30
172 152 208 85 241 301 194 127 7 292 330 334 329 330 323 319 318 320 321 322 312 283 269 261 252 239 226 221 223 228 233 235 241 245 252 263 276 288 294 301 306 312 318 331
254 187 208 188 222 47 339 281 327 342 324 323 319 324 323 320 324 324 321 316 311 293 271 262 254 244 236 233 235 239 232 240 245 245 245 250 260 272 284 289 290 291 296 301
278 190 221 4 281 339 320 334 345 338 329 326 322 315 314 312 315 316 322 319 325 308 287 268 258 250 243 241 243 245 234 242 246 247 248 253 256 259 263 269 277 283 288 289
297 307 287 278 316 334 109 329 324 324 321 321 323 324 320 316 311 311 307 305 306 311 300 280 266 260 257 249 249 247 242 244 251 251 250 251 256 257 261 266 267 270 273 277
334 71 13 267 323 291 290 313 326 320 326 329 328 329 327 321 317 314 305 305 303 297 295 288 276 265 261 256 253 250 247 247 252 255 253 254 257 259 260 262 264 269 271 272
Wind_Speed_850mb
4 2 15 17 14 2 2 5 10 8 2 5 17 20 38 41 26 35 51 48 40 38 39 44 43 44 44 45 47 55 64 65 69 69 67 59 54 54 53 52 52 52 46 47
5 14 11 8 7 11 9 8 12 9 4 2 15 33 37 27 15 15 13 18 20 25 33 42 43 43 42 44 51 60 66 67 63 59 55 55 57 58 55 53 53 52 46 44
11 5 6 7 6 6 6 9 7 9 9 1 14 16 12 2 6 11 14 16 15 19 24 31 35 37 39 46 55 61 60 57 55 55 56 54 53 54 54 52 54 53 46 43
11 8 5 5 6 8 4 2 3 2 6 7 5 12 14 6 13 8 17 18 15 12 16 22 27 33 42 51 56 56 54 54 52 52 52 51 53 55 48 52 54 54 41 36
9 3 2 2 5 7 9 5 2 3 5 7 3 2 16 7 6 4 7 21 19 16 21 26 31 39 47 52 54 54 54 52 50 48 48 49 51 53 53 51 54 51 37 21
12 5 1 6 5 5 7 6 3 6 3 3 2 5 11 7 9 5 5 14 17 23 27 29 36 43 48 47 49 49 49 47 44 44 44 47 50 51 52 51 51 46 41 36
7 2 5 8 2 5 6 7 5 7 4 9 3 2 18 10 9 10 10 24 20 21 28 35 44 45 43 45 43 43 43 43 41 42 42 43 45 47 50 49 48 45 41 32
4 10 6 7 5 1 3 3 4 11 3 6 4 11 10 10 6 13 20 23 25 33 36 41 40 38 41 41 41 40 41 43 40 40 40 39 40 43 44 43 43 39 37 34
3 9 4 7 2 2 7 6 4 7 3 2 3 13 15 4 9 10 21 18 30 34 34 35 33 37 38 38 35 38 40 40 39 38 38 35 36 36 36 35 34 34 32 31
2 9 2 5 3 5 5 3 3 1 2 7 8 11 10 8 8 10 13 25 37 36 34 33 33 34 33 31 33 33 36 40 38 36 35 34 32 30 29 27 23 26 26 27
6 4 3 3 10 9 6 4 3 3 3 7 3 12 13 13 11 12 17 42 43 36 31 30 30 29 29 28 32 33 34 32 29 30 30 30 27 25 25 18 17 20 25 24
3 4 8 10 4 5 2 4 5 5 7 1 5 13 6 11 9 9 37 47 34 32 29 29 28 25 25 28 29 30 29 29 29 29 25 23 24 22 21 17 15 14 17 21
5 5 8 5 3 3 6 5 5 5 5 10 8 11 2 6 11 24 37 36 31 29 29 27 25 24 24 23 24 24 27 27 28 26 23 21 20 20 17 15 14 12 15 19
7 5 9 7 2 3 5 5 7 7 5 6 13 20 33 19 17 30 41 33 34 30 27 25 21 20 19 19 18 18 22 26 28 26 24 20 17 16 15 10 7 13 18 19
3 7 7 17 24 17 20 17 12 16 11 12 7 13 30 29 23 30 36 35 34 29 25 22 18 14 12 11 12 15 21 23 25 25 24 21 20 18 17 15 11 9 10 14
2 6 4 12 10 3 10 17 22 23 14 18 9 45 20 26 25 23 32 30 35 28 24 18 12 8 6 7 10 12 16 18 21 24 22 23 23 20 20 20 18 17 16 18
6 2 6 8 4 13 8 9 8 4 7 11 8 18 10 21 17 36 53 56 46 29 22 16 8 3 1 3 6 8 11 16 19 21 24 25 23 23 25 25 24 26 27 26
1 3 1 8 11 3 6 3 6 10 13 14 14 19 21 34 58 60 49 47 34 21 18 13 7 5 4 6 8 11 13 17 20 23 26 28 28 27 27 27 29 33 34 38
10 3 4 1 5 11 4 5 7 9 10 13 14 15 27 36 28 6 33 27 9 14 17 15 12 10 11 12 12 10 7 9 10 12 16 20 22 22 23 24 27 27 26 27
4 5 3 1 5 3 10 5 10 9 6 11 13 12 10 32 10 9 49 44 23 17 17 17 15 15 15 18 17 15 10 4 3 3 6 8 9 9 10 11 13 15 14 13
1 1 8 7 6 13 10 2 13 9 11 35 21 39 24 4 14 52 51 44 37 28 23 23 22 20 21 26 25 19 16 10 9 7 4 4 3 3 4 6 7 8 9 9
11 10 6 1 3 8 7 5 4 8 34 50 53 47 49 53 59 58 55 51 40 35 33 30 30 28 30 33 32 26 22 19 18 16 12 10 9 9 8 7 6 5 5 4
5 8 4 13 9 5 15 23 32 29 45 47 57 59 51 52 58 59 62 53 45 39 39 39 38 37 40 40 39 35 21 28 24 23 19 17 16 14 14 14 12 11 10 10
6 6 4 6 4 20 56 18 23 48 51 46 50 55 57 61 60 60 55 43 43 41 43 46 50 51 51 49 47 38 32 36 33 30 28 27 25 22 21 19 19 19 18 18
3 5 5 11 12 49 12 44 62 60 53 58 59 54 53 52 59 55 56 50 49 49 45 47 57 61 58 54 55 47 41 44 43 38 37 36 34 31 30 29 27 27 24 27
4 3 3 6 23 11 50 63 55 53 59 53 61 63 50 46 49 50 53 53 54 55 48 48 53 61 63 59 62 58 52 52 52 50 46 43 41 38 38 37 35 35 33 34
Wind_Direction_850mb
27 67 228 215 204 233 120 234 265 260 26 280 252 275 274 278 257 263 273 281 276 262 252 246 248 255 262 275 289 300 303 303 305 306 305 298 295 293 293 293 293 294 290 281
10 244 252 244 196 221 233 263 267 272 122 260 304 292 280 286 263 251 264 290 279 252 242 242 247 253 265 280 293 298 300 302 305 305 301 299 301 297 297 297 295 293 290 281
198 210 15 189 202 183 222 210 239 252 324 50 325 290 316 301 272 261 259 286 280 256 250 244 249 259 275 288 295 299 302 305 307 306 304 301 295 291 293 295 293 290 293 285
235 286 249 255 270 146 280 251 139 249 45 265 25 283 300 343 301 265 263 264 271 260 246 243 255 272 288 299 303 305 305 304 305 304 302 301 299 299 296 293 292 292 295 284
266 346 343 224 230 154 234 21 68 98 95 41 7 358 270 357 311 334 314 256 263 261 259 262 273 288 299 304 304 305 305 304 306 304 301 299 298 298 297 292 289 289 290 262
254 295 112 221 60 86 140 45 58 39 104 347 173 154 278 234 207 290 310 320 287 269 268 275 291 300 303 303 304 305 303 306 306 303 300 299 299 298 295 295 293 290 283 261
310 67 71 18 109 65 71 53 299 318 17 223 126 239 249 263 236 215 265 303 288 276 281 291 297 300 304 305 306 307 308 309 308 305 304 301 298 296 294 294 295 292 285 279
13 322 28 355 58 139 146 169 209 246 236 300 139 237 254 218 252 272 278 284 298 297 293 296 300 307 307 308 312 313 313 314 312 309 307 303 301 298 296 295 292 286 283 277
342 279 100 61 100 179 136 207 108 111 154 357 269 280 301 263 310 303 276 290 312 312 305 307 310 308 308 311 315 315 316 317 313 312 310 310 305 299 300 297 291 282 274 273
227 303 107 111 74 327 274 114 174 312 288 285 285 282 242 312 278 296 312 293 313 319 316 311 310 307 311 316 318 318 318 318 320 322 319 315 311 306 302 298 292 283 277 274
141 137 260 131 201 182 162 187 189 86 115 177 297 272 213 221 222 243 294 316 322 323 317 314 311 313 316 322 321 321 323 323 328 325 322 316 311 307 301 300 289 280 281 280
212 248 269 243 62 29 12 153 178 140 253 141 144 274 228 236 253 258 294 321 326 323 321 318 316 317 324 327 325 328 328 334 334 331 329 324 318 312 311 308 293 280 280 285
171 236 300 281 161 137 236 175 131 124 78 201 145 263 267 283 290 288 293 324 330 325 321 318 318 322 327 334 338 343 343 351 349 347 347 342 332 322 332 332 319 304 272 258
177 248 232 257 311 138 243 229 202 140 112 191 231 285 289 308 312 317 328 329 328 325 321 322 322 327 339 347 354 360 2 360 1 2 1 360 354 346 342 354 340 302 294 300
212 256 225 259 269 243 251 229 193 201 199 210 265 234 284 292 291 300 317 328 325 324 325 326 326 333 352 4 16 17 16 9 8 15 13 16 13 11 11 14 10 350 337 335
177 275 296 277 259 295 267 240 222 229 236 269 317 284 298 298 304 294 316 325 324 327 326 325 321 334 18 33 34 21 18 16 21 28 31 41 39 33 42 44 45 43 41 46
196 251 345 273 298 301 294 243 187 202 242 162 196 240 334 300 293 293 304 303 303 310 314 307 293 276 71 60 43 43 39 42 44 46 49 50 53 56 58 59 68 70 68 70
234 121 247 280 322 15 259 203 197 199 239 228 287 271 275 273 292 299 307 292 289 288 295 284 265 237 183 138 120 101 86 77 71 66 63 58 57 55 58 65 75 80 81 79
196 156 273 269 282 291 34 247 161 183 259 194 218 268 290 321 317 10 13 349 308 271 275 265 242 215 188 174 163 150 129 83 72 75 76 73 67 61 60 59 56 59 65 72
195 153 149 324 280 235 237 259 199 137 315 223 215 272 289 339 16 271 333 336 313 289 275 264 246 224 208 201 193 183 180 143 112 78 73 72 69 70 67 62 68 71 67 60
94 269 190 229 273 288 265 185 155 69 273 333 312 318 304 275 274 305 322 318 310 283 266 256 250 230 208 207 203 208 223 222 223 223 256 298 322 354 26 27 24 22 26 30
172 152 208 85 241 301 194 127 7 292 330 334 329 330 323 319 318 320 321 322 312 283 269 261 252 239 226 221 223 228 233 235 241 245 252 263 276 288 294 301 306 312 318 331
254 187 208 188 222 47 339 281 327 342 324 323 319 324 323 320 324 324 321 316 311 293 271 262 254 244 236 233 235 239 232 240 245 245 245 250 260 272 284 289 290 291 296 301
278 190 221 4 281 339 320 334 345 338 329 326 322 315 314 312 315 316 322 319 325 308 287 268 258 250 243 241 243 245 234 242 246 247 248 253 256 259 263 269 277 283 288 289
297 307 287 278 316 334 109 329 324 324 321 321 323 324 320 316 311 311 307 305 306 311 300 280 266 260 257 249 249 247 242 244 251 251 250 251 256 257 261 266 267 270 273 277
334 71 13 267 323 291 290 313 326 320 326 329 328 329 327 321 317 314 305 305 303 297 295 288 276 265 261 256 253 250 247 247 252 255 253 254 257 259 260 262 264 269 271 272